Preview of NWS' New Version of Forecast
This preview is not operational and should not be used for support decisions.

Regional Weather Roundup (RWR)

Issued by National Weather Service (NWS)

                            
000
ASUS44 KMEG 201100
RWRTN 
TENNESSEE HOURLY STATE WEATHER ROUNDUP
NATIONAL WEATHER SERVICE MEMPHIS TN
600 AM CDT TUE AUG 20 2019

TNZ002-004-019-021-049-052-054-088>092-201200-
WEST TENNESSEE
  
CITY           SKY/WX    TMP DP  RH WIND       PRES   REMARKS
MEMPHIS INTL   FAIR      76  74  93 S5        30.05R                  
NWS MEMPHIS      N/A     75 N/A N/A MISG        N/A                   
JACKSON        FAIR      72  72 100 CALM      30.06S                  
DYERSBURG      FAIR      76  75  97 S3        30.05S                  
$$

TNZ008-025-027-028-033-062-065-066-201200-
NORTH MIDDLE TENNESSEE
  
CITY           SKY/WX    TMP DP  RH WIND       PRES   REMARKS
NASHVILLE      FAIR      73  69  87 S5        30.10R                  
CLARKSVILLE    FAIR      74  73  97 S6        30.06R                  
CROSSVILLE     FAIR      68  65  90 CALM      30.17S                  
$$

TNZ061-075-076-078-094-096-097-201200-
SOUTH MIDDLE TENNESSEE
  
CITY           SKY/WX    TMP DP  RH WIND       PRES   REMARKS
$$

TNZ017-018-042-046-047-201200-
NORTHEAST TENNESSEE
  
CITY           SKY/WX    TMP DP  RH WIND       PRES   REMARKS
TRI CITIES     FAIR      64  62  93 CALM      30.18R                  
$$

TNZ012-013-036-069-073-074-201200-
CENTRAL EAST TENNESSEE
  
CITY           SKY/WX    TMP DP  RH WIND       PRES   REMARKS
KNOXVILLE      FAIR      70  66  87 SE5       30.13R                  
OAK RIDGE      FAIR      73  68  84 CALM      30.14R                  
$$

TNZ083-085-099-201200-
SOUTHEAST TENNESSEE
  
CITY           SKY/WX    TMP DP  RH WIND       PRES   REMARKS
CHATTANOOGA    FAIR      71  69  93 CALM      30.13R                  
$$

SKY/WX REPORTED AS FAIR MEANS FEW OR NO CLOUDS BELOW
12 THOUSAND FEET.